Regional Weather Roundup
Issued by NWS

Home | Current Version | Previous Version | Graphics & Text | Print | Product List | Glossary Off
Versions: 1 2 3 4 5 6 7 8 9 10 11 12 13 14 15 16 17 18 19 20 21 22 23 24 25 26 27 28 29 30 31 32 33 34 35 36 37 38 39 40 41 42 43 44 45 46 47 48 49 50

000
ASUS43 KTOP 042208
RWRKS

WEATHER ROUNDUP FOR KANSAS
NATIONAL WEATHER SERVICE GOODLAND KS
500 PM CDT FRI SEP 04 2015

NOTE:  "FAIR" INDICATES FEW OR NO CLOUDS BELOW 12,000 FEET WITH NO
SIGNIFICANT WEATHER AND/OR OBSTRUCTIONS TO VISIBILITY.

KSZ001>006-013>018-027>032-041>047-042300-
NORTHWEST KANSAS

CITY           SKY/WX    TMP DP  RH WIND       PRES   REMARKS
GOODLAND       SUNNY     96  44  16 SW13G18   29.87F
HAYS           PTSUNNY   99  57  25 S21G31    29.82S HX  97
HILL CITY      SUNNY     99  55  23 S17G25    29.81F HX  97
RUSSELL        SUNNY     97  60  29 S25G35    29.82F HX  97
$$

KSZ061>065-074>080-084>089-042300-
SOUTHWEST KANSAS

CITY           SKY/WX    TMP DP  RH WIND       PRES   REMARKS
DODGE CITY     SUNNY     95  54  25 S22G30    29.87F
ELKHART          N/A     95  55  26 S13         N/A
GARDEN CITY    MOSUNNY   94  55  26 S18G28    29.86F
GREAT BEND     SUNNY     97  63  32 S24G33    29.83F HX  98
LIBERAL        SUNNY     97  55  24 S22G29    29.88F HX  95
PRATT          SUNNY     95  55  26 MISG      29.89F
$$

KSZ066>073-081>083-090>101-042300-
SOUTHEAST KANSAS

CITY           SKY/WX    TMP DP  RH WIND       PRES   REMARKS
CHANUTE        SUNNY     89  69  51 S14       29.95F
COFFEYVILLE    SUNNY     89  71  55 S10       29.94F HX  95
HUTCHINSON     SUNNY     95  62  33 S22G29    29.87F HX  96
MEDICINE LODGE   N/A     97  63  32 S10G26    29.86F HX  98
NEWTON         SUNNY     93  63  36 S18       29.93F
PARSONS        MOSUNNY   89  72  56 S6        29.95F HX  96
WICHITA INTL   MOSUNNY   94  65  38 S15       29.89F HX  96
WICHITA JABRA  SUNNY     90  67  46 S15G23    29.90F
WICHITA MCCONL SUNNY     92  66  41 SE20      29.90F
WINFIELD       MOSUNNY   93  66  40 S17       29.92F HX  96
$$

KSZ007>012-019>026-033>040-048>060-102>105-042300-
NORTHEAST KANSAS

CITY           SKY/WX    TMP DP  RH WIND       PRES   REMARKS
CONCORDIA      MOSUNNY   94  65  38 S16G28    29.85S HX  96
EMPORIA        SUNNY     90  66  45 S18       29.92S
LAWRENCE       SUNNY     91  66  43 S13       29.92F
MANHATTAN      SUNNY     94  64  37 S17G24    29.87F HX  95
MARYSVILLE     SUNNY     91  64  40 S12G23    29.87S
OLATHE IND     SUNNY     89  68  49 SE13      29.96S
OLATHE EXE     SUNNY     87  68  52 S13       29.95S
SALINA         SUNNY     95  63  34 S25       29.85F HX  96
TOPEKA BILLARD SUNNY     91  67  44 S16       29.91F
TOPEKA FORBES  SUNNY     91  68  46 S14       29.92S HX  95
$$


USA.gov is the U.S. government's official web portal to all federal, state and local government web resources and services.